Skip Page Navigation
NASA JPL Caltech
NASA Logo - Jet Propulsion Laboratory + View the NASA Portal
+ Center for Near-Earth Object Studies
JPL Home Earth Solar System Stars & Galaxies Technology
JPL Solar System Dynamics
BODIES ORBITS EPHEMERIDES TOOLS PHYSICAL DATA DISCOVERY FAQ SITE MAP
JPL Small-Body Database Browser
Search: [ help ]  
35254 (1996 BW2)
Classification: Main-belt Asteroid          SPK-ID: 2035254
Ephemeris | Orbit Diagram | Orbital Elements | Mission Design | Physical Parameters | Discovery Circumstances | Close-Approach Data ]

[ show orbit diagram ]
Orbital Elements at Epoch 2459000.5 (2020-May-31.0) TDB
Reference: JPL 24 (heliocentric ecliptic J2000)
 Element Value Uncertainty (1-sigma)   Units 
e .1694834789537063 4.0743e-08  
a 3.133580020259135 2.1282e-08 au
q 2.602489976845791 1.2378e-07 au
i 18.5568032520141 4.4149e-06 deg
node 119.4061883452519 1.2861e-05 deg
peri 336.8827028764867 1.8298e-05 deg
M 176.6887748051365 1.5421e-05 deg
tp 2458006.088656896861
(2017-Sep-09.58865690)
8.1864e-05 TDB
period 2026.094096311109
5.55
2.0641e-05
5.651e-08
d
yr
n .1776817772952642 1.8101e-09 deg/d
Q 3.664670063672478 2.4889e-08 au
  Orbit Determination Parameters
   # obs. used (total)      1070  
   data-arc span      8858 days (24.25 yr)  
   first obs. used      1996-01-26  
   last obs. used      2020-04-27  
   planetary ephem.      DE431  
   SB-pert. ephem.      SB431-N16  
   condition code      0  
   norm. resid. RMS      .53628  
   source      ORB  
   producer      Otto Matic  
   solution date      2020-May-20 08:04:04  

Additional Information
 Earth MOID = 1.62832 au 
 Jupiter MOID = 1.51719 au 
 T_jup = 3.111 
[ show covariance matrix ]

Ephemeris | Orbit Diagram | Orbital Elements | Mission Design | Physical Parameters | Discovery Circumstances | Close-Approach Data ]

Physical Parameter Table
Parameter Symbol Value Units Sigma Reference Notes
absolute magnitude H 13.8   n/a MPO344573  
diameter diameter 5.282 km 1.654 urn:nasa:pds:neowise_diameters_albedos::2.0[mainbelt] (http://adsabs.harvard.edu/abs/2011ApJ...741...68M)  
geometric albedo albedo 0.230   0.204 urn:nasa:pds:neowise_diameters_albedos::2.0[mainbelt] (http://adsabs.harvard.edu/abs/2011ApJ...741...68M)  

35254 (1996 BW2)          Discovered 1996-Jan-26 by Uto, F. at Uto
Reference: 20020227/Numbers.arcLast Updated: 2004-04-19

[ hide close-approach data ]
Close-Approach Data   ...sorted by Date/Time (TDB)
Date/Time (TDB) Time Uncertainty
(days_HH:MM)
Body Nominal Distance (au) Minimum Distance (au) Maximum Distance (au) V-relative (km/s) V-infinity (km/s) JD (TDB) Time Uncertainty (minutes) Semi-major axis (km) Semi-minor axis (km) range-LOV angle (deg) N-sigma BP Orbit Ref. Reference Modified
1938-Aug-12 00:14 00:02 Jupiter 1.73696685689923 1.73696490933404 1.73696880448556 4.25431695782246 4.13810627809292 2429122.509957955 2.25592642506396 327.52478581761 18.5765467797058 72.8400978475445 3598347.39184716 T 24 CATAB v2.0f-lin.ifort 2020-May-20 08:04:14 2020-May-20 08:04
1949-Jan-08 01:04 00:02 Jupiter 1.63223849615608 1.63223738297707 1.63223960934251 4.19446964901986 4.06887079157986 2432924.544666349 1.72368229783505 223.218597531682 33.1049924692376 -77.9039499578263 3478593.50492758 T 24 CATAB v2.0f-lin.ifort 2020-May-20 08:04:14 2020-May-20 08:04
2021-Jan-24 16:58 < 00:01 Jupiter 1.54204503443858 1.5420446067206 1.54204546215683 4.33655237388065 4.20798242517193 2459239.206833836 0.294821850575198 77.4089581574957 17.2444719841223 81.2629894718364 3589341.77325928 T 24 CATAB v2.0f-lin.ifort 2020-May-20 08:04:14 2020-May-20 08:04
2031-Jun-18 21:54 < 00:01 Jupiter 1.88628444975997 1.88628357434083 1.88628532517921 3.88074693556808 3.76325804444985 2463036.412465350 0.685464473980896 110.882573542516 42.9823324236012 83.5816953847815 3535416.1190345 T 24 CATAB v2.0f-lin.ifort 2020-May-20 08:04:14 2020-May-20 08:04
2093-Mar-28 07:44 00:03 Jupiter 1.91045915523347 1.91045696898157 1.91046134149318 3.89161004243087 3.77596442178386 2485599.822328451 2.68025225683632 231.779355727521 30.465129900654 61.1075585281997 3173008.97025423 T 24 CATAB v2.0f-lin.ifort 2020-May-20 08:04:14 2020-May-20 08:04
2103-Jul-30 03:29 00:02 Jupiter 1.53924034803247 1.53923932542286 1.53924137066282 4.31589277059956 4.18644936374885 2489374.645374250 2.35820709629913 336.855624242812 26.2761959694922 -82.5023328331179 3651743.1372179 T 24 CATAB v2.0f-lin.ifort 2020-May-20 08:04:14 2020-May-20 08:04
2175-Aug-21 18:29 00:05 Jupiter 1.64166869190315 1.64166564690547 1.64167173705648 4.21369582379484 4.08941660453604 2515695.270222326 4.63569359182742 830.233236617729 18.2023800573182 79.2388981868322 3359160.27790083 T 24 CATAB v2.0f-lin.ifort 2020-May-20 08:04:14 2020-May-20 08:04
2186-Jan-22 07:35 00:05 Jupiter 1.71376872890758 1.71376451172404 1.71377294612036 4.19125125308669 4.07162081085638 2519501.816108008 4.89453194903873 425.116550879319 53.6739042046178 -60.5159239844163 3768657.50886266 T 24 CATAB v2.0f-lin.ifort 2020-May-20 08:04:14 2020-May-20 08:04

Alternate Designations
 1996 BW2 = 2000 YJ122 
Ephemeris | Orbit Diagram | Orbital Elements | Mission Design | Physical Parameters | Discovery Circumstances | Close-Approach Data ]
ABOUT SSD CREDITS/AWARDS PRIVACY/COPYRIGHT GLOSSARY LINKS
FirstGov 2020-Aug-03 13:21 UT
(server date/time)  
NASA Home Page
Site Manager:   Ryan S. Park
Webmaster  Alan B. Chamberlin